Location: Makanda
(37.6176°N, 89.2090°W)
Time: 12:13:42
(UTC+00:00)

CZ-4B R/B - Pass Details

Date: 23 September 2019
Orbit: 488 x 651 km, 97.8° (Epoch: 19 October)

Event Time Altitude Azimuth Distance (km) Brightness Sun altitude
Rises 10:23:29 0° 13° (NNE) 2,978 6.9 -16.9°
Reaches altitude 10° 10:25:43 10° 15° (NNE) 2,059 6.1 -16.4°
Maximum altitude 10:30:14 78° 101° (E) 660 3.2 -15.6°
Drops below altitude 10° 10:34:37 10° 189° (S) 1,995 5.5 -14.7°
Sets 10:36:46 0° 190° (S) 2,877 6.3 -14.3°
